Theta_e
323 324 324 324 324 323 325 327 326 325 323 322 322 319 318 316 315 314 314 314 313 311 310 310 309 308 307 305 303 299 296 295
325 326 325 325 325 324 325 327 327 324 322 321 318 317 313 311 311 311 310 310 310 310 310 309 306 303 300 297 296 295 295 294
328 329 329 328 327 327 327 324 315 315 316 315 314 312 311 311 311 311 311 311 310 310 307 302 298 297 297 297 296 295 294 294
324 325 321 317 316 315 314 312 312 312 312 311 311 311 311 311 311 311 311 310 310 306 302 299 297 298 297 296 295 294 294 295
319 316 314 314 314 314 313 314 313 313 313 313 314 313 312 311 311 310 310 308 303 300 300 299 298 298 297 297 295 293 292 297
315 315 315 315 315 315 315 315 315 315 314 314 313 312 311 311 310 309 304 302 300 299 299 298 298 298 298 297 295 293 293 295
315 316 316 315 315 316 315 315 315 315 314 313 311 310 309 307 306 304 302 301 300 300 299 299 298 298 298 297 295 293 292 292
316 316 316 316 316 318 316 315 315 313 311 310 309 308 306 303 302 301 301 300 299 299 299 298 297 298 297 295 294 294 293 292
316 316 316 316 316 316 315 315 313 311 308 308 306 303 302 301 301 300 300 299 299 299 298 297 297 297 296 295 294 294 293 292
316 316 316 316 316 315 313 312 310 308 307 304 303 302 301 301 301 300 299 298 298 298 297 294 292 294 295 295 295 294 293 291
317 317 316 316 313 312 310 308 307 305 303 303 302 302 301 301 300 299 298 296 295 293 293 293 292 294 295 295 294 293 291 290
315 314 314 312 310 309 307 305 304 303 303 302 302 301 300 299 297 295 293 293 293 292 292 291 293 295 295 294 293 292 289 289
312 310 310 309 308 305 304 305 304 303 302 302 300 299 296 294 293 292 293 292 292 292 291 291 294 295 293 292 293 291 289 289
309 309 309 307 306 305 305 303 302 301 300 299 297 294 293 293 293 293 292 291 291 291 290 292 292 292 292 292 290 289 289 288
309 307 306 305 304 304 303 302 300 299 298 295 293 293 293 293 293 292 291 291 291 290 290 291 291 291 291 290 289 289 289 288
307 306 305 304 303 304 301 299 297 296 294 293 293 294 293 293 292 291 291 290 290 290 290 292 291 290 290 289 289 288 288 287
307 304 303 302 301 300 297 297 297 295 293 293 294 294 293 292 291 291 290 290 290 289 290 290 290 290 289 289 288 288 286 285
304 303 303 300 298 297 297 297 295 293 292 293 293 292 291 291 291 290 290 289 289 288 289 289 289 289 288 288 287 286 284 283
303 303 300 297 297 297 296 295 293 292 291 291 291 291 291 290 290 290 290 289 289 289 289 289 289 288 287 286 285 284 283 282
Wind_Speed
15 15 17 16 19 22 22 21 21 17 6 7 5 1 1 3 5 6 8 9 10 12 15 17 20 24 26 27 27 26 25 25
6 5 7 10 11 10 13 16 11 3 9 11 10 5 4 1 5 8 10 10 10 13 15 19 24 26 26 25 25 26 24 27
9 7 8 7 7 8 8 11 13 15 12 10 6 3 3 7 11 11 13 14 13 14 19 23 23 20 21 23 24 24 23 23
17 16 19 23 23 22 20 20 19 16 11 6 2 0 3 7 10 12 12 10 12 18 21 21 19 22 24 24 24 22 19 18
19 24 25 24 22 19 17 15 13 10 6 3 4 5 7 9 10 10 8 11 16 18 18 17 19 21 23 23 22 20 19 12
23 23 21 19 18 16 12 11 9 6 5 4 7 8 8 8 8 7 11 14 17 17 19 19 21 22 22 23 22 21 17 13
21 20 18 17 15 11 10 8 10 7 4 5 6 7 6 6 7 11 14 16 18 20 20 21 22 24 25 23 22 21 16 15
22 20 18 16 14 6 12 11 7 4 4 5 5 5 6 9 12 14 14 17 18 19 21 24 27 26 23 21 18 17 17 17
21 18 16 15 11 8 10 8 5 3 4 3 4 6 9 10 12 13 15 17 18 21 24 26 25 24 24 23 23 20 17 16
19 17 16 15 11 10 8 6 4 2 2 3 5 8 10 12 13 14 16 18 21 23 25 23 22 23 26 25 25 27 18 15
17 17 16 14 11 9 6 3 1 2 3 5 8 11 15 17 16 18 20 21 22 23 26 26 24 24 25 22 28 18 14 14
15 15 14 12 8 4 1 2 1 3 6 9 11 14 15 16 18 19 20 23 26 26 27 24 23 24 21 25 21 18 12 16
16 15 12 10 6 4 2 3 7 7 9 11 11 16 19 19 16 20 23 26 24 28 28 23 21 22 21 27 23 15 14 15
17 13 11 8 4 3 5 8 6 7 7 12 18 20 17 16 18 22 25 27 29 28 25 19 19 22 22 16 13 13 16 18
16 12 9 5 4 6 7 6 5 7 13 18 18 15 14 16 21 25 27 29 28 25 21 17 20 18 14 10 12 16 18 19
15 11 9 8 7 5 5 3 7 13 16 15 13 13 14 21 24 27 29 27 25 25 21 14 16 15 14 12 15 15 19 25
13 12 11 8 7 6 3 6 12 15 14 13 13 13 20 23 26 28 27 25 24 22 13 10 12 13 12 10 13 19 24 26
14 12 9 9 7 4 7 10 13 14 13 10 12 18 22 24 27 26 25 23 21 18 9 9 9 8 9 14 18 23 23 24
13 10 10 8 6 7 9 12 14 14 12 13 16 20 23 25 26 23 22 22 17 12 8 6 7 10 14 19 22 22 22 23
Wind_Direction
232 246 254 253 243 234 231 223 210 207 273 258 276 164 65 23 353 339 325 314 314 321 326 326 327 327 325 325 325 325 323 321
228 246 249 228 212 229 248 232 235 181 101 143 149 155 150 31 349 338 329 322 320 324 329 328 325 326 327 330 332 330 327 323
128 120 101 102 125 159 168 136 120 99 106 118 122 121 354 337 338 327 327 320 318 323 325 327 328 333 337 335 333 331 327 324
125 122 118 114 115 118 119 113 103 106 115 105 83 345 316 315 306 305 303 306 319 324 326 328 330 332 334 334 332 328 324 322
134 131 127 124 120 118 119 118 122 126 141 188 258 287 299 301 302 299 308 324 326 326 329 329 328 330 335 335 328 320 316 309
143 141 136 133 130 130 136 144 155 173 207 248 280 301 311 314 311 319 328 325 326 327 329 329 329 331 327 330 324 319 312 306
157 157 155 155 152 152 163 162 185 204 245 272 294 316 332 343 330 320 320 319 322 325 327 329 329 323 318 313 308 308 305 302
175 175 175 176 175 206 197 195 196 225 282 305 319 333 337 330 321 316 309 317 318 320 322 323 321 313 303 304 311 314 311 313
193 192 191 194 201 210 198 206 221 277 309 306 317 328 334 325 311 309 311 316 314 316 315 316 314 307 302 299 298 292 287 297
198 199 203 208 226 201 200 218 249 307 319 319 333 330 315 304 300 305 313 312 307 307 310 313 316 311 305 292 301 294 289 304
206 211 211 208 193 193 208 236 323 296 282 301 312 313 316 314 306 306 305 311 314 317 316 314 310 303 291 292 307 287 292 296
205 194 185 183 189 205 198 134 260 281 309 311 307 314 315 309 307 308 316 321 319 317 317 313 303 300 291 303 284 276 288 298
179 174 173 180 186 183 165 349 309 312 293 298 309 314 313 311 315 324 326 323 318 318 315 309 309 289 304 301 285 281 284 289
176 177 181 187 199 245 296 327 309 283 297 309 312 315 317 317 321 324 326 324 322 320 316 310 304 302 302 288 283 287 294 290
177 183 188 188 206 257 312 279 273 302 309 311 314 316 312 312 321 323 324 324 322 321 317 310 307 312 304 288 287 293 292 294
186 192 188 197 206 271 212 242 304 311 316 319 308 303 305 316 317 320 323 324 322 319 309 297 308 308 291 289 292 298 301 303
195 192 196 204 190 187 216 293 314 323 322 309 294 295 311 314 317 322 325 323 323 323 312 309 307 300 293 294 299 305 308 311
199 199 198 191 188 226 287 308 319 318 315 306 297 308 312 316 322 324 323 323 323 326 309 306 299 296 298 304 308 311 315 318
199 202 191 193 230 270 303 314 316 314 313 307 309 312 316 321 323 322 321 317 321 315 309 300 297 304 309 311 315 318 320 320